Regional Weather Roundup
Issued by NWS Upton, NY

Home | Current Version | Previous Version | Text Only | Print | Product List | Glossary On
Versions: 1 2 3 4 5 6 7 8 9 10 11 12 13 14 15 16 17 18 19 20 21 22 23 24 25 26
000
ASUS41 KOKX 241505
RWROKX

REGIONAL WEATHER ROUNDUP
NATIONAL WEATHER SERVICE NEW YORK NY
1100 AM EDT THU APR 24 2014

NOTE: "FAIR" INDICATES FEW OR NO CLOUDS BELOW 12,000 FEET WITH NO
SIGNIFICANT WEATHER AND/OR OBSTRUCTIONS TO VISIBILITY.

NYZ071-072-176-178-NJZ106-104-241600-
NEW YORK CITY METRO AREA


CITY           SKY/WX    TMP DP  RH WIND       PRES   REMARKS
CENTRAL PARK   SUNNY     51  13  21 NW13G26   29.94S
LAGUARDIA APRT SUNNY     50  15  24 NW21G32   29.91S
KENNEDY INTL   SUNNY     54  11  18 NW22G30   29.91F
NEWARK/LIBERTY SUNNY     53  11  18 NW22G35   29.93S
TETERBORO      SUNNY     54  16  22 NW23G33   29.91R
$$

NYZ177-179-078>081-241600-
LONG ISLAND NEW YORK

CITY           SKY/WX    TMP DP  RH WIND       PRES   REMARKS
FARMINGDALE    SUNNY     51  14  22 NW17G25   29.89S
ISLIP          MOSUNNY   53  14  21 NW24G33   29.83S
SHIRLEY        SUNNY     52  14  22 NW22G37   29.85R
WESTHAMPTON    SUNNY     52  12  20 NW29G43   29.82F
MONTAUK POINT    N/A    N/A N/A N/A MISG      29.79R
$$

NYZ052-065-067-241600-
HUDSON VALLEY

CITY           SKY/WX    TMP DP  RH WIND       PRES   REMARKS
WHITE PLAINS   SUNNY     51  13  21 NW22G35   29.87R
NEWBURGH       SUNNY     50  16  25 N23G37    29.90R
MONTGOMERY     SUNNY     52  17  25 NW16G25   29.91R
POUGHKEEPSIE   SUNNY     52  14  22 NW17G36   29.89R
ALBANY         SUNNY     49  14  24 NW23G31   29.93R
$$

NJZ001-105-106-008-010-013-015-019>022-104-241600-
NEW JERSEY

CITY           SKY/WX    TMP DP  RH WIND       PRES   REMARKS
NEWARK/LIBERTY SUNNY     53  11  18 NW22G35   29.93S
TETERBORO      SUNNY     54  16  22 NW23G33   29.91R
CALDWELL       SUNNY     50  13  22 NW21G32   29.93S
MORRISTOWN     SUNNY     52  14  22 N15G26    29.96R
SOMERVILLE     SUNNY     51  14  22 NW12G29   29.96S
LINDEN         FAIR      54  17  23 NW25G32   29.96S
SUSSEX         SUNNY     52  14  22 NW15G28   29.95S
ANDOVER          N/A     48  14  25 NW14G28   29.97R
TRENTON        SUNNY     52  16  24 NW18G30   30.00R
MILLVILLE      SUNNY     53  19  26 NW17G26   30.02F
ATLANTIC CITY  SUNNY     53  16  23 NW25G35   29.99F
WRIGHTSTOWN    SUNNY     52  17  25 NW21G31   29.97S
TOMS RIVER     SUNNY     52  18  25 NW23G31   29.97S
BELMAR         SUNNY     52  18  25 NW18G30   29.95S
$$

PAZ047>061-062-071-241600-
EASTERN PENNSYLVANIA

CITY           SKY/WX    TMP DP  RH WIND       PRES   REMARKS
PHILADELPHIA   SUNNY     52  13  21 NW21G29   30.05F
ALLENTOWN      SUNNY     51  16  24 W16G23    30.03R
SCRANTON       SUNNY     48  15  26 N22G35    30.02R
$$

CTZ002-004>006-009-010-012-RIZ004-006-007-MAZ004-011-015-241600-
SOUTHERN NEW ENGLAND
 IN CT

CITY           SKY/WX    TMP DP  RH WIND       PRES   REMARKS
BRADLEY INTL   SUNNY     50  14  23 NW20G29   29.81R
HARTFORD       SUNNY     49  13  23 NW22G35   29.82R
DANBURY        SUNNY     50  16  25 NW14G22   29.88R
WTRBRY/OXFORD  SUNNY     46  16  29 NW14G28   29.86
BRIDGEPORT     SUNNY     54  13  19 NW17G32   29.84R
MERIDEN        SUNNY     50  11  20 N21G32    29.82R
NEW HAVEN      SUNNY     52  13  21 NW21G32   29.83R
CHESTER        FAIR      48  12  23 NW17G31   29.79S
GROTON         SUNNY     52  15  23 NW26G36   29.76R
WILLIMANTIC    SUNNY     49  14  24 N22G35    29.78R

 IN RI

CITY           SKY/WX    TMP DP  RH WIND       PRES   REMARKS
PROVIDENCE     MOSUNNY   51  16  24 NW23G33   29.73R
BLOCK ISLAND   SUNNY     48  21  34 NW15G29   29.75R
WESTERLY       SUNNY     52  14  22 NW13G35   29.76R

 IN MA

CITY           SKY/WX    TMP DP  RH WIND       PRES   REMARKS
BOSTON         MOSUNNY   50  22  33 NW25G36   29.69R
WORCESTER      SUNNY     44  18  35 NW28G45   29.72R
WESTFIELD      SUNNY     51  16  24 NW29G37   29.79R
PROVINCETOWN   SUNNY     46  28  49 MISG      29.66S
NANTUCKET      SUNNY     50  18  28 NW21G35   29.65R
$$

ANZ330-335-338-340-345-350-353-355-241600-
COASTAL MARINE OBSERVATIONS


STATION/POSITION TIME  SKY/WX   TEMP    WIND        PRES    VSBY  WAVE
                                AIR SEA DIR/SP/G                  HT/PER
                 (UTC)          (F)     (DEG/KT/KT) (MB)    (MI)  (FT/S)
NY HARB ENTRANCE 1500            46 45  VRB 21/ 25  1013.0
4S FIRE IS       1400               45                N/A           3/ 3
23SW MTP         1500            44 43  290/ 25/ 31 1008.2          5/ 6
HUDSON CANYON    1400            44 45  300/ 23/ 29 1011.8          8/ 7
EXECUTION ROCKS  1500            49 45  330/ 16/ 25   N/A
WESTERN LI SOUND 1500            47     300/ 16/ 21   N/A           1/ 2
CENTRAL LI SOUND 1400            45 43  290/ 16/ 21   N/A           3/ 4
EASTERN LI SOUND NOT AVBL
ROBBINS REEF     1500            49     320/ 25/ 33   N/A
$$


>>>>>>>>>>>>>>>>>>>>>>>>>>>> KEY <<<<<<<<<<<<<<<<<<<<<<<<<<<
>                                                          <
>     SKY/WX - SKY CONDITION/PRESENT WEATHER               <
>     TMP    - TEMPERATURE IN FAHRENHEIT                   <
>     DP     - DEWPOINT IN FAHRENHEIT                      <
>     RH     - RELATIVE HUMIDITY IN PERCENT                <
>     WIND   - DIRECTION AND SPEED IN MPH                  <
>     PRES   - MEAN SEA LEVEL PRESSURE IN INCHES OF HG     <
>     WCI    - WIND CHILL INDEX                            <
>     VSB    - VISIBILITY IN MILES                         <
>     HX     - HEAT INDEX                                  <
>     TC     - TEMPERATURE IN CELSIUS                      <
>     VRB    - VARIABLE WIND DIRECTION                     <
>                                                          <
>>>>>>>>>>>>>>>>>>>>>>>>>>>> KEY <<<<<<<<<<<<<<<<<<<<<<<<<<<





USA.gov is the U.S. government's official web portal to all federal, state and local government web resources and services.